{"data":{"norad_id":46025,"epoch":"2026-09-20T04:29:58.462080Z","epoch_age_seconds":80486,"freshness":"FRESH","line1":"1 46025U 20054A   26263.18748220  .00009019  00000+0  23410-3 0  9990","line2":"2 46025  97.2340 330.9011 0011499 107.1077 253.1429 15.39137590340969","mean_motion":15.3913759,"eccentricity":0.0011499,"inclination_deg":97.234,"raan_deg":330.9011,"arg_perigee_deg":107.1077,"mean_anomaly_deg":253.1429,"bstar":0.0002341,"rev_number":34096,"period_min":93.55888709079,"perigee_km":440.80812383787,"apogee_km":456.50838756693,"semimajor_km":6826.7952557024,"source":"CELESTRAK","updated_at":"2026-09-20T09:00:14.717383Z"}}